Ernest Shackleton — ZDLS1 — position and weather

sailwx.info

Track history (hours):
 
Tides and Currents Weather Stations Pressure Air Temp Water Temp Dewpoint Dewpoint Depression Visibility Wind Speed Wind Dir Waves Ship Positions

Oceanographic research ship Ernest Shackleton (UK/Norway)

Detailed information on ship capabilities available from University of Delaware's Ocean Information Center and ARCUS's ALIAS (Arctic Logistics Information and Support) project.

Last reported at 2015-Mar-31 07:00 UTC. Time now 2015-Mar-31 15:33 UTC.
Position S 67°36' W 068°06'.

Length 80 m; beam 17 m; draft 7.4 m.

Type: Other ship. MMSI: 740357000.

AWS

Barometer 972.9 mb
Air temperature -0.6 ° C
Dewpoint -2.1 ° C

Date/timePositionNaut miles runAvg speedWind from/ knotsBaromVisibWave heightAir tempDewpointWater temp
2015-Mar-31 07:00S 67°36' W 068°06'0 0.0 972.9 -0.6-2.1
2015-Mar-31 05:00S 67°36' W 068°06'0 0.0 972.2 -0.3-3.3
2015-Mar-31 04:00S 67°36' W 068°06'0 0.0 972.1 0.1-3.6
2015-Mar-31 03:00S 67°36' W 068°06'0 0.0 971.9 1.1-4.2
2015-Mar-31 01:00S 67°36' W 068°06'0 0.0 971.4 -0.3-1.5
2015-Mar-30 23:00S 67°36' W 068°06'0 0.0 971.8 -1.0 0.2
2015-Mar-30 22:00S 67°36' W 068°06'0 0.0 971.9 -0.8-0.2
2015-Mar-30 20:00S 67°36' W 068°06'0 0.0 972.3 -0.4-1.6
2015-Mar-30 17:00S 67°36' W 068°06'0 0.0 973.5 -0.5-1.6
2015-Mar-30 14:00S 67°36' W 068°06'0 0.0 974.6 -0.6-1.9
2015-Mar-30 13:00S 67°36' W 068°06'0 0.0 975.2 -0.5-2.4
2015-Mar-30 10:00S 67°36' W 068°06'0 0.0 976.3 -0.9-2.4
2015-Mar-30 09:00S 67°36' W 068°06'0 0.0 976.9 -1.2-2.3
2015-Mar-30 08:00S 67°36' W 068°06'0 0.0 977.1 -1.6-1.1
2015-Mar-30 07:00S 67°36' W 068°06'0 0.0 977.7 -1.6-1.3
2015-Mar-30 06:00S 67°36' W 068°06'0 0.0 978.4 -1.9-0.5
2015-Mar-30 05:00S 67°36' W 068°06'0 0.0 979.2 -1.8-0.6
2015-Mar-30 04:00S 67°36' W 068°06'0 0.0 979.9 -1.8-0.6
2015-Mar-30 02:00S 67°36' W 068°06'0 0.0 981.1 -1.8-0.9
2015-Mar-30 01:00S 67°36' W 068°06'0 0.0 981.7 -1.5-1.7
2015-Mar-30 00:00S 67°36' W 068°06'0 0.0 982.6 -1.3-2.3
2015-Mar-29 23:00S 67°36' W 068°06'0 0.0 983.8 -1.5-1.6
2015-Mar-29 22:00S 67°36' W 068°06'0 0.0 984.7 -1.2-2.2
2015-Mar-29 20:00S 67°36' W 068°06'0 0.0 986.2 -1.3-2.5
2015-Mar-29 19:00S 67°36' W 068°06'0 0.0 986.9 -0.6-4.0
2015-Mar-29 17:00S 67°36' W 068°06'0 0.0 987.9 -0.5-4.5
2015-Mar-29 14:00S 67°36' W 068°06'0 0.0 989.6 -1.2-2.8
2015-Mar-29 13:00S 67°36' W 068°06'0 0.0 989.8 -1.4-2.5
2015-Mar-29 11:00S 67°36' W 068°06'0 0.0 990.6 -1.8-1.1
2015-Mar-29 10:00S 67°36' W 068°06'0 0.0 991.6 -1.8-0.8
2015-Mar-29 07:00S 67°36' W 068°06'0 0.0 993.8 -2.3 0.6
2015-Mar-29 06:00S 67°36' W 068°06'0 0.0 994.9 -2.3 0.7
2015-Mar-29 05:00S 67°36' W 068°06'0 0.0 994.1 -1.7-2.6
2015-Mar-29 04:00S 67°36' W 068°06'0 0.0 995.2 -1.8-1.4
2015-Mar-29 03:00S 67°36' W 068°06'0 0.0 996.1 -1.6-2.3
2015-Mar-29 02:00S 67°36' W 068°06'0 0.0 996.4 -1.8-3.1
2015-Mar-29 01:00S 67°36' W 068°06'0 0.0 997.0 -1.8-2.9
2015-Mar-29 00:00S 67°36' W 068°06'0 0.0 998.1 -1.6-4.0
2015-Mar-28 23:00S 67°36' W 068°06'0 0.0 998.4 -1.9-2.4
2015-Mar-28 22:00S 67°36' W 068°06'0 0.0 999.4 -1.9-2.6
2015-Mar-28 21:00S 67°36' W 068°06'0 0.0 999.7 -1.9-3.9
2015-Mar-28 20:00S 67°36' W 068°06'0 0.0 1000.2 -0.8-5.4
2015-Mar-28 18:00S 67°36' W 068°06'0 0.0 1000.5 -1.8-3.9
2015-Mar-28 17:00S 67°36' W 068°06'0 0.0 1000.5 -1.9-3.3
2015-Mar-28 16:00S 67°36' W 068°06'0 0.0 1000.5 -0.7-6.0
2015-Mar-28 14:00S 67°36' W 068°06'0 0.0 1000.2 -1.0-6.1
2015-Mar-28 13:00S 67°36' W 068°06'6 3.0 1000.0 -1.6-4.3
2015-Mar-28 11:00S 67°42' W 068°06'9 9.1 -1.8-2.9
2015-Mar-28 10:00S 67°48' W 068°24'11 5.7 999.8 -1.7-4.7
2015-Mar-28 08:00S 67°48' W 068°54'5 4.5 999.1 -1.7-3.4
2015-Mar-28 07:00S 67°48' W 069°06'5 4.5 998.4 -2.2-3.5
2015-Mar-28 06:00S 67°48' W 069°18'13 6.4 998.1 -2.1-3.2
2015-Mar-28 04:00S 67°42' W 069°48'6 6.4 997.1 -1.9-4.2
2015-Mar-28 03:00S 67°36' W 069°54'6 6.0 996.6 -1.9-2.4
2015-Mar-28 02:00S 67°30' W 069°54'6 6.0 996.2 -1.7-2.3
2015-Mar-28 01:00S 67°24' W 069°54'6 6.0 996.2 -1.8-4.2
2015-Mar-28 00:00S 67°18' W 069°54'18 9.1 995.7 -1.8-2.9
2015-Mar-27 22:00S 67°00' W 069°48'6 6.4 994.2 -1.6-3.2
2015-Mar-27 21:00S 66°54' W 069°42'1212.2 993.9 -1.5-2.1
2015-Mar-27 20:00S 66°42' W 069°36'8 7.7 993.9 -1.5-0.7
2015-Mar-27 19:00S 66°36' W 069°24'1212.2 993.4 -1.3-1.6
2015-Mar-27 18:00S 66°24' W 069°18'1312.9 993.3 -1.7-0.2
2015-Mar-27 17:00S 66°12' W 069°06'6 6.5 993.8 -1.5-0.8
2015-Mar-27 16:00S 66°06' W 069°00'19 9.7 993.4 -1.2-1.5
2015-Mar-27 14:00S 65°48' W 068°42'3210.5 992.6 -0.7-1.6
2015-Mar-27 11:00S 65°18' W 068°18'27 9.0 993.1 -1.4
2015-Mar-27 08:00S 64°54' W 067°48'27 9.1 993.6 -0.3 0.1
2015-Mar-27 05:00S 64°30' W 067°18'8 7.9 995.0 0.5 0.3
2015-Mar-27 04:00S 64°24' W 067°06'18 8.8 995.9 0.5 0.3
2015-Mar-27 02:00S 64°12' W 066°36'16 8.0 998.4 0.7 0.5
2015-Mar-27 00:00S 64°00' W 066°12'260 9.3 1000.8 0.5 0.3
2015-Mar-25 20:00S 60°18' W 061°24'7 6.7 1021.8 1.5-0.2
2015-Mar-25 19:00S 60°12' W 061°18'1212.4 1022.3 2.0-0.2
2015-Mar-25 18:00S 60°00' W 061°12'15 7.5 1023.3 2.0-0.4
2015-Mar-25 16:00S 59°48' W 060°54'1313.4 1023.6 2.0-0.4
2015-Mar-25 15:00S 59°36' W 060°42'7 6.7 1023.3 2.0-0.4
2015-Mar-25 14:00S 59°30' W 060°36'15 7.5 1023.2 1.8-0.4
2015-Mar-25 12:00S 59°18' W 060°18'1212.4 1022.9 2.1 0.2
2015-Mar-25 11:00S 59°06' W 060°12'7 6.7 1022.2 2.2-0.0
2015-Mar-25 10:00S 59°00' W 060°06'7 6.8 1022.2 2.7 0.5
2015-Mar-25 09:00S 58°54' W 060°00'15 7.6 1021.7 3.0 0.6
2015-Mar-25 07:00S 58°42' W 059°42'7 6.8 1021.8 2.5 1.3
2015-Mar-25 06:00S 58°36' W 059°36'1212.4 1021.6 2.4 1.2
2015-Mar-25 05:00S 58°24' W 059°30'15 7.6 1022.0 2.5 1.3
2015-Mar-25 03:00S 58°12' W 059°12'27 9.1 1021.1 2.6 2.1
2015-Mar-25 00:00S 57°48' W 058°48'368 9.4 1020.7 3.3 3.2
2015-Mar-23 09:00S 51°42' W 057°48'0 0.0 1014.4 6.9 5.1
2015-Mar-23 06:00S 51°42' W 057°48'0 0.0 1012.6 7.3 6.6
2015-Mar-23 05:00S 51°42' W 057°48'0 0.0 1012.2 7.5 6.8
2015-Mar-23 03:00S 51°42' W 057°48'0 0.0 1011.4 8.1 7.0
2015-Mar-22 22:00S 51°42' W 057°48'   1010.7 9.0 7.7
Track history (hours):
 
Tides and Currents Weather Stations Pressure Air Temp Water Temp Dewpoint Dewpoint Depression Visibility Wind Speed Wind Dir Waves Ship Positions

Oceanographic research ship Ernest Shackleton (UK/Norway)

Detailed information on ship capabilities available from University of Delaware's Ocean Information Center and ARCUS's ALIAS (Arctic Logistics Information and Support) project.

Last reported at 2015-Mar-31 07:00 UTC. Time now 2015-Mar-31 15:33 UTC.
Position S 67°36' W 068°06'.

Length 80 m; beam 17 m; draft 7.4 m.

Type: Other ship. MMSI: 740357000.

AWS

Barometer 972.9 mb
Air temperature -0.6 ° C
Dewpoint -2.1 ° C

Date/timePositionNaut miles runAvg speedWind from/ knotsBaromVisibWave heightAir tempDewpointWater temp
2015-Mar-31 07:00S 67°36' W 068°06'0 0.0 972.9 -0.6-2.1
2015-Mar-31 05:00S 67°36' W 068°06'0 0.0 972.2 -0.3-3.3
2015-Mar-31 04:00S 67°36' W 068°06'0 0.0 972.1 0.1-3.6
2015-Mar-31 03:00S 67°36' W 068°06'0 0.0 971.9 1.1-4.2
2015-Mar-31 01:00S 67°36' W 068°06'0 0.0 971.4 -0.3-1.5
2015-Mar-30 23:00S 67°36' W 068°06'0 0.0 971.8 -1.0 0.2
2015-Mar-30 22:00S 67°36' W 068°06'0 0.0 971.9 -0.8-0.2
2015-Mar-30 20:00S 67°36' W 068°06'0 0.0 972.3 -0.4-1.6
2015-Mar-30 17:00S 67°36' W 068°06'0 0.0 973.5 -0.5-1.6
2015-Mar-30 14:00S 67°36' W 068°06'0 0.0 974.6 -0.6-1.9
2015-Mar-30 13:00S 67°36' W 068°06'0 0.0 975.2 -0.5-2.4
2015-Mar-30 10:00S 67°36' W 068°06'0 0.0 976.3 -0.9-2.4
2015-Mar-30 09:00S 67°36' W 068°06'0 0.0 976.9 -1.2-2.3
2015-Mar-30 08:00S 67°36' W 068°06'0 0.0 977.1 -1.6-1.1
2015-Mar-30 07:00S 67°36' W 068°06'0 0.0 977.7 -1.6-1.3
2015-Mar-30 06:00S 67°36' W 068°06'0 0.0 978.4 -1.9-0.5
2015-Mar-30 05:00S 67°36' W 068°06'0 0.0 979.2 -1.8-0.6
2015-Mar-30 04:00S 67°36' W 068°06'0 0.0 979.9 -1.8-0.6
2015-Mar-30 02:00S 67°36' W 068°06'0 0.0 981.1 -1.8-0.9
2015-Mar-30 01:00S 67°36' W 068°06'0 0.0 981.7 -1.5-1.7
2015-Mar-30 00:00S 67°36' W 068°06'0 0.0 982.6 -1.3-2.3
2015-Mar-29 23:00S 67°36' W 068°06'0 0.0 983.8 -1.5-1.6
2015-Mar-29 22:00S 67°36' W 068°06'0 0.0 984.7 -1.2-2.2
2015-Mar-29 20:00S 67°36' W 068°06'0 0.0 986.2 -1.3-2.5
2015-Mar-29 19:00S 67°36' W 068°06'0 0.0 986.9 -0.6-4.0
2015-Mar-29 17:00S 67°36' W 068°06'0 0.0 987.9 -0.5-4.5
2015-Mar-29 14:00S 67°36' W 068°06'0 0.0 989.6 -1.2-2.8
2015-Mar-29 13:00S 67°36' W 068°06'0 0.0 989.8 -1.4-2.5
2015-Mar-29 11:00S 67°36' W 068°06'0 0.0 990.6 -1.8-1.1
2015-Mar-29 10:00S 67°36' W 068°06'0 0.0 991.6 -1.8-0.8
2015-Mar-29 07:00S 67°36' W 068°06'0 0.0 993.8 -2.3 0.6
2015-Mar-29 06:00S 67°36' W 068°06'0 0.0 994.9 -2.3 0.7
2015-Mar-29 05:00S 67°36' W 068°06'0 0.0 994.1 -1.7-2.6
2015-Mar-29 04:00S 67°36' W 068°06'0 0.0 995.2 -1.8-1.4
2015-Mar-29 03:00S 67°36' W 068°06'0 0.0 996.1 -1.6-2.3
2015-Mar-29 02:00S 67°36' W 068°06'0 0.0 996.4 -1.8-3.1
2015-Mar-29 01:00S 67°36' W 068°06'0 0.0 997.0 -1.8-2.9
2015-Mar-29 00:00S 67°36' W 068°06'0 0.0 998.1 -1.6-4.0
2015-Mar-28 23:00S 67°36' W 068°06'0 0.0 998.4 -1.9-2.4
2015-Mar-28 22:00S 67°36' W 068°06'0 0.0 999.4 -1.9-2.6
2015-Mar-28 21:00S 67°36' W 068°06'0 0.0 999.7 -1.9-3.9
2015-Mar-28 20:00S 67°36' W 068°06'0 0.0 1000.2 -0.8-5.4
2015-Mar-28 18:00S 67°36' W 068°06'0 0.0 1000.5 -1.8-3.9
2015-Mar-28 17:00S 67°36' W 068°06'0 0.0 1000.5 -1.9-3.3
2015-Mar-28 16:00S 67°36' W 068°06'0 0.0 1000.5 -0.7-6.0
2015-Mar-28 14:00S 67°36' W 068°06'0 0.0 1000.2 -1.0-6.1
2015-Mar-28 13:00S 67°36' W 068°06'6 3.0 1000.0 -1.6-4.3
2015-Mar-28 11:00S 67°42' W 068°06'9 9.1 -1.8-2.9
2015-Mar-28 10:00S 67°48' W 068°24'11 5.7 999.8 -1.7-4.7
2015-Mar-28 08:00S 67°48' W 068°54'5 4.5 999.1 -1.7-3.4
2015-Mar-28 07:00S 67°48' W 069°06'5 4.5 998.4 -2.2-3.5
2015-Mar-28 06:00S 67°48' W 069°18'13 6.4 998.1 -2.1-3.2
2015-Mar-28 04:00S 67°42' W 069°48'6 6.4 997.1 -1.9-4.2
2015-Mar-28 03:00S 67°36' W 069°54'6 6.0 996.6 -1.9-2.4
2015-Mar-28 02:00S 67°30' W 069°54'6 6.0 996.2 -1.7-2.3
2015-Mar-28 01:00S 67°24' W 069°54'6 6.0 996.2 -1.8-4.2
2015-Mar-28 00:00S 67°18' W 069°54'18 9.1 995.7 -1.8-2.9
2015-Mar-27 22:00S 67°00' W 069°48'6 6.4 994.2 -1.6-3.2
2015-Mar-27 21:00S 66°54' W 069°42'1212.2 993.9 -1.5-2.1
2015-Mar-27 20:00S 66°42' W 069°36'8 7.7 993.9 -1.5-0.7
2015-Mar-27 19:00S 66°36' W 069°24'1212.2 993.4 -1.3-1.6
2015-Mar-27 18:00S 66°24' W 069°18'1312.9 993.3 -1.7-0.2
2015-Mar-27 17:00S 66°12' W 069°06'6 6.5 993.8 -1.5-0.8
2015-Mar-27 16:00S 66°06' W 069°00'19 9.7 993.4 -1.2-1.5
2015-Mar-27 14:00S 65°48' W 068°42'3210.5 992.6 -0.7-1.6
2015-Mar-27 11:00S 65°18' W 068°18'27 9.0 993.1 -1.4
2015-Mar-27 08:00S 64°54' W 067°48'27 9.1 993.6 -0.3 0.1
2015-Mar-27 05:00S 64°30' W 067°18'8 7.9 995.0 0.5 0.3
2015-Mar-27 04:00S 64°24' W 067°06'18 8.8 995.9 0.5 0.3
2015-Mar-27 02:00S 64°12' W 066°36'16 8.0 998.4 0.7 0.5
2015-Mar-27 00:00S 64°00' W 066°12'260 9.3 1000.8 0.5 0.3
2015-Mar-25 20:00S 60°18' W 061°24'7 6.7 1021.8 1.5-0.2
2015-Mar-25 19:00S 60°12' W 061°18'1212.4 1022.3 2.0-0.2
2015-Mar-25 18:00S 60°00' W 061°12'15 7.5 1023.3 2.0-0.4
2015-Mar-25 16:00S 59°48' W 060°54'1313.4 1023.6 2.0-0.4
2015-Mar-25 15:00S 59°36' W 060°42'7 6.7 1023.3 2.0-0.4
2015-Mar-25 14:00S 59°30' W 060°36'15 7.5 1023.2 1.8-0.4
2015-Mar-25 12:00S 59°18' W 060°18'1212.4 1022.9 2.1 0.2
2015-Mar-25 11:00S 59°06' W 060°12'7 6.7 1022.2 2.2-0.0
2015-Mar-25 10:00S 59°00' W 060°06'7 6.8 1022.2 2.7 0.5
2015-Mar-25 09:00S 58°54' W 060°00'15 7.6 1021.7 3.0 0.6
2015-Mar-25 07:00S 58°42' W 059°42'7 6.8 1021.8 2.5 1.3
2015-Mar-25 06:00S 58°36' W 059°36'1212.4 1021.6 2.4 1.2
2015-Mar-25 05:00S 58°24' W 059°30'15 7.6 1022.0 2.5 1.3
2015-Mar-25 03:00S 58°12' W 059°12'27 9.1 1021.1 2.6 2.1
2015-Mar-25 00:00S 57°48' W 058°48'368 9.4 1020.7 3.3 3.2
2015-Mar-23 09:00S 51°42' W 057°48'0 0.0 1014.4 6.9 5.1
2015-Mar-23 06:00S 51°42' W 057°48'0 0.0 1012.6 7.3 6.6
2015-Mar-23 05:00S 51°42' W 057°48'0 0.0 1012.2 7.5 6.8
2015-Mar-23 03:00S 51°42' W 057°48'0 0.0 1011.4 8.1 7.0
2015-Mar-22 22:00S 51°42' W 057°48'   1010.7 9.0 7.7

Dump ship's entire track history